Location: Unspecified
(0.0000°N, 0.0000°E)
Time: 14:29:21
(UTC+02:00)

Iridium 47 - Visible Passes

Search period start: 25 July 2017 00:00
Search period end: 04 August 2017 00:00
Orbit: 776 x 779 km, 86.4° (Epoch: 25 July)

Date Brightness Start Highest point End Pass type
(mag) Time Alt. Az. Time Alt. Az. Time Alt. Az.
25 Jul 5.0 21:23:42 10° S 21:28:52 62° E 21:33:59 10° N visible
26 Jul 5.9 20:51:00 10° SSE 20:55:24 28° E 20:59:46 10° NNE visible
26 Jul 7.6 22:32:40 10° SW 22:35:49 16° W 22:38:58 10° NW visible
27 Jul 6.5 21:57:37 10° SSW 22:02:22 36° W 22:07:05 10° NNW visible
28 Jul 5.1 21:23:41 10° S 21:28:55 81° W 21:34:06 10° N visible
29 Jul 5.3 20:50:29 10° SSE 20:55:27 45° E 21:00:23 10° NNE visible
30 Jul 7.3 21:58:26 10° SW 22:02:24 22° W 22:06:23 10° NW visible
31 Jul 5.9 21:23:56 10° SSW 21:28:58 49° W 21:33:58 10° NNW visible
01 Aug 5.0 20:50:18 10° S 20:55:31 74° E 21:00:42 10° N visible
02 Aug 8.0 21:59:58 10° WSW 22:02:28 14° W 22:04:57 10° WNW visible
03 Aug 6.9 21:24:29 10° SSW 21:29:00 30° W 21:33:31 10° NNW visible
